Вернуться в каталог

STARLINK-1777

АктивенСвязьVLEO
NORAD 47122·PAYLOAD·🇺🇸 United States

Запущен Nov 25, 2020 с Cape Canaveral Space Force Station

Loading…

Ближайшие Пролёты (ближайшие 24 часа)

TLE

СвежийSource: CelesTrak SupGP

Эпоха: Sep 14, 2026, 23:38 UTC

1 47122C 20088A   26257.98520833  .00588900  00000+0  94476-3 0  2573
2 47122  53.0347  66.2598 0001852  67.3357 317.4089 16.02558909    11

Отслеживайте STARLINK-1777 в реальном времени с AllMySat

Download on the App Store